Location: Derby
(52.9213°N, 1.4761°W)
Time: 16:01:41
(UTC+01:00)

Vanguard 1 - Pass Details

Date: 19 May 2025
Orbit: 649 x 3822 km, 34.3° (Epoch: 14 June)

Event Time Altitude Azimuth Distance (km) Brightness Sun altitude
Rises 18:01:51 0° 219° (SW) 7,517 15.1 24.8°
Reaches altitude 10° 18:08:49 10° 209° (SSW) 6,048 14.5 23.8°
Maximum altitude 18:20:53 24° 165° (SSE) 3,924 13.1 22.0°
Drops below altitude 10° 18:29:08 10° 118° (ESE) 4,017 12.7 20.7°
Sets 18:32:32 0° 104° (ESE) 4,590 12.9 20.2°
